Location: Boussac
(44.2782°N, 2.3665°E)
Time: 16:05:21
(UTC+00:00)

Cosmos 1743 - Pass Details

Date: 15 May 2026
Orbit: 367 x 372 km, 82.5° (Epoch: 9 June)

Event Time Altitude Azimuth Distance (km) Brightness Sun altitude
Rises 19:44:14 0° 354° (N) 2,249 6.6 -6.0°
Reaches altitude 10° 19:46:14 10° 358° (N) 1,396 5.4 -6.3°
Maximum altitude 19:49:14 61° 80° (E) 435 2.1 -6.7°
Drops below altitude 10° 19:52:13 10° 162° (SSE) 1,392 4.4 -7.1°
Enters shadow 19:53:12 - 165° (SSE) 1,809 5.0 -7.3°
